Regional Weather Roundup
Issued by NWS Huntsville, AL

Home | Current Version | Previous Version | Text Only | Print | Product List | Glossary On
Versions: 1 2 3 4 5 6 7 8 9 10 11 12 13 14 15 16 17 18 19 20 21 22 23 24 25 26 27 28 29 30 31 32 33 34 35 36 37 38 39 40 41 42 43 44 45 46 47 48 49 50
000
ASUS44 KHUN 232300
RWRHUN

WEATHER ROUNDUP FOR THE TENNESSEE VALLEY
NATIONAL WEATHER SERVICE HUNTSVILLE AL
600 PM CDT WED APR 23 2014

ALZ001>004-240000-
NORTHWEST ALABAMA

CITY           SKY/WX    TMP DP  RH WIND       PRES   REMARKS
COURTLAND HCN    N/A     72 N/A N/A NE3         N/A
RUSSELLVILLE     N/A     72 N/A N/A MISG        N/A
SHOALS AIRPORT SUNNY     74  38  27 E3        29.96S
SHOALS TVA RES   N/A     72 N/A N/A MISG        N/A
$$

ALZ005>007-016-240000-
NORTH CENTRAL ALABAMA

CITY           SKY/WX    TMP DP  RH WIND       PRES   REMARKS
DECATUR AP     SUNNY     74  34  23 N7        29.96S
HUNTSVILLE AP  SUNNY     74  34  23 N8        29.95S
HUN NWS/UAH      N/A     72  33  23 N8          N/A
MERIDIANVILLE  SUNNY     70  27  19 N3        29.96S
$$

ALZ008>010-240000-
NORTHEAST ALABAMA

CITY           SKY/WX    TMP DP  RH WIND       PRES   REMARKS
FORT PAYNE     NOT AVBL
SCOTTSBORO AP  SUNNY     73  34  23 N5        29.94R
SCOTTSBORO HCN   N/A     73 N/A N/A MISG        N/A
VALLEY HEAD      N/A     72 N/A N/A MISG        N/A
$$

TNZ076-096-097-240000-
SOUTHEASTERN MIDDLE TENNESSEE

CITY           SKY/WX    TMP DP  RH WIND       PRES   REMARKS
TULLAHOMA      SUNNY     68  30  24 VRB5      29.98S
WINCHESTER     SUNNY     68  36  30 N7        29.97S
$$

...SURROUNDING SITES...

CITY           SKY/WX    TMP DP  RH WIND       PRES   REMARKS
ATLANTA        SUNNY     74  30  19 NW10      29.91R
ANNISTON       SUNNY     77  35  21 N5        29.92S
BIRMINGHAM     SUNNY     77  34  21 N7        29.95R
CHATTANOOGA    MOSUNNY   74  32  21 VRB7      29.93S
CORINTH        FAIR      75  32  20 N6        29.94S
DALTON         NOT AVBL
GADSDEN        SUNNY     73  39  29 N7        29.92S
GOLDEN TRNGL   SUNNY     79  43  27 NE7       29.95S
HALEYVILLE     FAIR      73  37  26 NE5       29.98S
JACKSON TN     SUNNY     75  34  22 N5        29.95S
MEMPHIS        MOSUNNY   77  35  21 E5        29.93S
NASHVILLE      MOSUNNY   68  33  27 N12       29.99S
ROME           SUNNY     75  39  27 N6        29.92R
TUPELO         SUNNY     77  35  21 CALM      29.92F
TUSCALOOSA     SUNNY     80  42  25 N5        29.91S
$$

...GULF COAST WEATHER...

CITY           SKY/WX    TMP DP  RH WIND       PRES   REMARKS
GULFPORT       SUNNY     79  62  56 SW7       29.89S
PASCAGOULA     SUNNY     75  63  66 S7        29.90R
MOBILE         MOSUNNY   78  63  59 S10       29.89S
PENSACOLA      MOSUNNY   72  65  78 SW13      29.89S
DESTIN         MOSUNNY   74  65  73 VRB6      29.89S
PANAMA CITY    SUNNY     73  71  94 W12       29.90R
APPALACHICOLA  SUNNY     75  65  70 W9        29.90R
$$




USA.gov is the U.S. government's official web portal to all federal, state and local government web resources and services.